This demonstration page uses our WeatherBlox Daily Observations layout. Learn more.

Left ArrowRight Arrow

41.55636, -103.73856

Hourly Observations for February 27, 2018

Temp ( °F °C ) Dew Point ( °F °C ) Humidity (%) Winds ( mph kmh ) Pressure ( in mb ) Visibility ( mi km ) Precip ( " mm )
12:53 am 00:53 Clear 26 -3.3 22 -5.6 84 84 N N/A 29.91 1013 10 16 N/A
1:53 am 01:53 Clear 24 -4.4 20 -6.7 84 84 NW 5 7 29.91 1013 10 16 N/A
2:53 am 02:53 Clear 25 -3.9 20 -6.7 81 81 NW 7 11 29.89 1012 10 16 N/A
3:53 am 03:53 Clear 25 -3.9 20 -6.7 81 81 NW 8 13 29.88 1012 10 16 N/A
4:53 am 04:53 Clear 24 -4.4 19 -7.2 81 81 NW 9 15 29.89 1012 10 16 N/A
5:53 am 05:53 Clear 24 -4.4 19 -7.2 81 81 NW 12 19 29.93 1014 10 16 N/A
6:53 am 06:53 Sunny 24 -4.4 18 -7.8 77 77 NW 9 15 29.96 1014 10 16 N/A
7:53 am 07:53 Sunny 29 -1.7 22 -5.6 75 75 WNW 6 9 29.96 1014 10 16 N/A
8:53 am 08:53 Sunny 33 0.6 23 -5 66 66 S 3 6 29.95 1014 10 16 N/A
9:53 am 09:53 Sunny 39 3.9 24 -4.4 55 55 SSE 3 6 29.93 1013 10 16 N/A
10:53 am 10:53 Sunny 45 7.2 23 -5 42 42 SE 8 13 29.90 1012 10 16 N/A
11:53 am 11:53 Sunny 48 8.9 25 -3.9 41 41 SE 8 13 29.88 1012 10 16 N/A
12:53 pm 12:53 Sunny 52 11.1 23 -5 32 32 SE 8 13 29.82 1010 10 16 N/A
1:53 pm 13:53 Sunny 54 12.2 21 -6.1 28 28 SE 7 11 29.80 1009 10 16 N/A
2:53 pm 14:53 Sunny 55 12.8 23 -5 29 29 E 8 13 29.78 1009 10 16 N/A
3:53 pm 15:53 Sunny 54 12.2 20 -6.7 26 26 VRB 5 7 29.78 1008 10 16 N/A
4:53 pm 16:53 Sunny 52 11.1 24 -4.4 34 34 NNE 7 11 29.80 1009 10 16 N/A
5:53 pm 17:53 Clear 42 5.6 24 -4.4 49 49 N 3 6 29.85 1011 10 16 N/A
6:53 pm 18:53 Clear 36 2.2 23 -5 59 59 N 5 7 29.86 1011 10 16 N/A
7:53 pm 19:53 Clear 31 -0.6 23 -5 72 72 N N/A 29.86 1011 10 16 N/A
8:53 pm 20:53 Clear 32 undefined 21 -6.1 64 64 S 6 9 29.87 1011 10 16 N/A
9:53 pm 21:53 Clear 30 -1.1 21 -6.1 69 69 N 3 6 29.87 1011 10 16 N/A
10:53 pm 22:53 Clear 28 -2.2 23 -5 81 81 NNW 6 9 29.85 1011 10 16 N/A
11:53 pm 23:53 Clear 29 -1.7 24 -4.4 82 82 NNW 8 13 29.84 1011 10 16 N/A

Powered by AerisWeather